Time,TemperatureF,DewpointF,PressureIn,WindDirection,WindDirectionDegrees,WindSpeedMPH,WindSpeedGustMPH,Humidity,HourlyPrecipIn,Conditions,Clouds,dailyrainin,SolarRadiationWatts/m^2,SoftwareType,DateUTC
2013-03-02 00:00:00,12.6,7.1,30.28,NNW,333,0.0,2.0,78,0.00,,---,0.00,0.00,VWS V14.01,2013-03-02 06:00:00,
2013-03-02 00:05:00,12.5,7.5,30.28,NNW,333,0.0,2.0,80,0.00,,---,0.00,0.00,VWS V14.01,2013-03-02 06:05:00,
2013-03-02 00:10:00,12.5,7.8,30.28,NNW,333,1.0,2.0,81,0.00,,---,0.00,0.00,VWS V14.01,2013-03-02 06:10:00,
2013-03-02 00:15:00,12.4,7.7,30.28,NNW,333,0.0,2.0,81,0.00,,---,0.00,0.00,VWS V14.01,2013-03-02 06:15:00,
2013-03-02 00:20:00,12.3,7.6,30.28,NNW,333,0.0,2.0,81,0.00,,---,0.00,0.00,VWS V14.01,2013-03-02 06:20:00,
2013-03-02 00:25:00,12.1,7.1,30.28,NNW,333,1.0,2.0,80,0.00,,---,0.00,0.00,VWS V14.01,2013-03-02 06:25:00,
2013-03-02 00:30:00,11.7,6.7,30.28,NNW,333,0.0,2.0,80,0.00,,---,0.00,0.00,VWS V14.01,2013-03-02 06:30:00,
2013-03-02 00:35:00,11.6,6.6,30.28,NNW,333,1.0,2.0,80,0.00,,---,0.00,0.00,VWS V14.01,2013-03-02 06:35:00,
2013-03-02 00:40:00,11.3,6.3,30.29,NNW,333,0.0,2.0,80,0.00,,---,0.00,0.00,VWS V14.01,2013-03-02 06:40:00,
2013-03-02 00:45:00,11.1,6.2,30.29,NNW,333,1.0,2.0,80,0.00,,---,0.00,0.00,VWS V14.01,2013-03-02 06:45:00,
2013-03-02 00:50:00,10.9,5.9,30.28,NNW,333,0.0,2.0,80,0.00,,---,0.00,0.00,VWS V14.01,2013-03-02 06:50:00,
2013-03-02 00:55:00,10.6,5.7,30.28,NNW,333,0.0,2.0,80,0.00,,---,0.00,0.00,VWS V14.01,2013-03-02 06:55:00,
2013-03-02 01:00:00,10.2,5.0,30.28,NNW,333,0.0,0.0,79,0.00,,---,0.00,0.00,VWS V14.01,2013-03-02 07:00:00,
2013-03-02 01:05:00,9.9,4.7,30.28,NNW,333,2.0,2.0,79,0.00,,---,0.00,0.00,VWS V14.01,2013-03-02 07:05:00,
2013-03-02 01:10:00,9.0,3.8,30.29,NNW,333,1.0,2.0,79,0.00,,---,0.00,0.00,VWS V14.01,2013-03-02 07:10:00,
2013-03-02 01:15:00,7.8,2.7,30.29,NNW,333,2.0,2.0,79,0.00,,---,0.00,0.00,VWS V14.01,2013-03-02 07:15:00,
2013-03-02 01:20:00,7.4,2.5,30.29,NNW,333,1.0,2.0,80,0.00,,---,0.00,0.00,VWS V14.01,2013-03-02 07:20:00,
2013-03-02 01:25:00,7.2,2.6,30.29,NNW,333,0.0,2.0,81,0.00,,---,0.00,0.00,VWS V14.01,2013-03-02 07:25:00,
2013-03-02 01:30:00,7.2,2.9,30.29,NNW,333,0.0,2.0,82,0.00,,---,0.00,0.00,VWS V14.01,2013-03-02 07:30:00,
2013-03-02 01:35:00,7.3,3.2,30.29,NNW,333,0.0,2.0,83,0.00,,---,0.00,0.00,VWS V14.01,2013-03-02 07:35:00,
2013-03-02 01:40:00,7.3,3.2,30.30,NNW,333,1.0,2.0,83,0.00,,---,0.00,0.00,VWS V14.01,2013-03-02 07:40:00,
2013-03-02 01:45:00,7.1,5.3,30.29,NNW,333,0.0,2.0,92,0.00,,---,0.00,0.00,VWS V14.01,2013-03-02 07:45:00,
2013-03-02 01:50:00,6.9,2.8,30.29,NNW,333,0.0,2.0,83,0.00,,---,0.00,0.00,VWS V14.01,2013-03-02 07:50:00,
2013-03-02 01:55:00,6.8,2.7,30.29,NNW,333,1.0,2.0,83,0.00,,---,0.00,0.00,VWS V14.01,2013-03-02 07:55:00,
2013-03-02 02:00:00,6.7,2.6,30.29,NNW,333,2.0,2.0,83,0.00,,---,0.00,0.00,VWS V14.01,2013-03-02 08:00:00,
2013-03-02 02:05:00,6.4,2.3,30.30,NNW,333,2.0,3.0,83,0.00,,---,0.00,0.00,VWS V14.01,2013-03-02 08:05:00,
2013-03-02 02:10:00,6.2,2.2,30.30,NNW,333,2.0,3.0,83,0.00,,---,0.00,0.00,VWS V14.01,2013-03-02 08:10:00,
2013-03-02 02:15:00,6.0,2.2,30.30,NNW,333,1.0,3.0,84,0.00,,---,0.00,0.00,VWS V14.01,2013-03-02 08:15:00,
2013-03-02 02:20:00,5.9,2.1,30.30,NNW,333,1.0,3.0,84,0.00,,---,0.00,0.00,VWS V14.01,2013-03-02 08:20:00,
2013-03-02 02:25:00,5.8,2.0,30.29,NNW,333,0.0,3.0,84,0.00,,---,0.00,0.00,VWS V14.01,2013-03-02 08:25:00,
2013-03-02 02:30:00,5.7,1.9,30.30,NNW,333,1.0,3.0,84,0.00,,---,0.00,0.00,VWS V14.01,2013-03-02 08:30:00,
2013-03-02 02:35:00,5.7,2.2,30.30,NNW,333,2.0,3.0,85,0.00,,---,0.00,0.00,VWS V14.01,2013-03-02 08:35:00,
2013-03-02 02:40:00,5.6,2.1,30.30,NNW,333,1.0,3.0,85,0.00,,---,0.00,0.00,VWS V14.01,2013-03-02 08:40:00,
2013-03-02 02:45:00,5.6,2.1,30.30,NNW,333,0.0,3.0,85,0.00,,---,0.00,0.00,VWS V14.01,2013-03-02 08:45:00,
2013-03-02 02:50:00,5.4,1.9,30.29,NNW,333,1.0,3.0,85,0.00,,---,0.00,0.00,VWS V14.01,2013-03-02 08:50:00,
2013-03-02 02:55:00,5.3,1.5,30.29,NNW,333,1.0,3.0,84,0.00,,---,0.00,0.00,VWS V14.01,2013-03-02 08:55:00,
2013-03-02 03:00:00,5.0,1.2,30.29,NNW,333,0.0,1.0,84,0.00,,---,0.00,0.00,VWS V14.01,2013-03-02 09:00:00,
2013-03-02 03:05:00,4.6,0.8,30.29,NNW,333,0.0,1.0,84,0.00,,---,0.00,0.00,VWS V14.01,2013-03-02 09:05:00,
2013-03-02 03:10:00,4.4,0.6,30.29,NNW,333,0.0,1.0,84,0.00,,---,0.00,0.00,VWS V14.01,2013-03-02 09:10:00,
2013-03-02 03:15:00,4.3,0.6,30.29,NNW,333,1.0,1.0,84,0.00,,---,0.00,0.00,VWS V14.01,2013-03-02 09:15:00,
2013-03-02 03:20:00,4.2,0.4,30.28,NNW,333,2.0,2.0,84,0.00,,---,0.00,0.00,VWS V14.01,2013-03-02 09:20:00,
2013-03-02 03:25:00,4.0,0.2,30.29,NNW,333,2.0,2.0,84,0.00,,---,0.00,0.00,VWS V14.01,2013-03-02 09:25:00,
2013-03-02 03:30:00,3.8,0.1,30.28,NNW,333,2.0,2.0,84,0.00,,---,0.00,0.00,VWS V14.01,2013-03-02 09:30:00,
2013-03-02 03:35:00,3.8,0.3,30.28,NNW,333,0.0,2.0,85,0.00,,---,0.00,0.00,VWS V14.01,2013-03-02 09:35:00,
2013-03-02 03:40:00,3.9,0.4,30.28,NNW,333,0.0,2.0,85,0.00,,---,0.00,0.00,VWS V14.01,2013-03-02 09:40:00,
2013-03-02 03:45:00,3.9,0.4,30.28,NNW,333,0.0,2.0,85,0.00,,---,0.00,0.00,VWS V14.01,2013-03-02 09:45:00,
2013-03-02 03:50:00,4.0,0.8,30.28,NNW,333,0.0,2.0,86,0.00,,---,0.00,0.00,VWS V14.01,2013-03-02 09:50:00,
2013-03-02 03:55:00,4.0,0.8,30.28,NNW,333,0.0,2.0,86,0.00,,---,0.00,0.00,VWS V14.01,2013-03-02 09:55:00,
2013-03-02 04:00:00,4.1,0.9,30.28,NNW,333,1.0,2.0,86,0.00,,---,0.00,0.00,VWS V14.01,2013-03-02 10:00:00,
2013-03-02 04:05:00,4.1,0.9,30.29,NNW,333,2.0,2.0,86,0.00,,---,0.00,0.00,VWS V14.01,2013-03-02 10:05:00,
2013-03-02 04:11:00,4.2,0.9,30.29,NNW,333,0.0,2.0,86,0.00,,---,0.00,0.00,VWS V14.01,2013-03-02 10:11:00,
2013-03-02 04:16:00,4.4,1.1,30.28,NNW,333,0.0,2.0,86,0.00,,---,0.00,0.00,VWS V14.01,2013-03-02 10:16:00,
2013-03-02 04:21:00,4.5,1.5,30.28,NNW,333,0.0,2.0,87,0.00,,---,0.00,0.00,VWS V14.01,2013-03-02 10:21:00,
2013-03-02 04:26:00,4.6,1.6,30.29,NNW,333,0.0,2.0,87,0.00,,---,0.00,0.00,VWS V14.01,2013-03-02 10:26:00,
2013-03-02 04:31:00,4.8,1.8,30.29,NNW,333,0.0,2.0,87,0.00,,---,0.00,0.00,VWS V14.01,2013-03-02 10:31:00,
2013-03-02 04:36:00,4.8,1.8,30.29,NNW,333,0.0,2.0,87,0.00,,---,0.00,0.00,VWS V14.01,2013-03-02 10:36:00,
2013-03-02 04:41:00,5.0,2.0,30.29,NNW,333,1.0,2.0,87,0.00,,---,0.00,0.00,VWS V14.01,2013-03-02 10:41:00,
2013-03-02 04:46:00,5.1,2.1,30.29,NNW,333,0.0,2.0,87,0.00,,---,0.00,0.00,VWS V14.01,2013-03-02 10:46:00,
2013-03-02 04:51:00,5.2,2.2,30.29,NNW,333,0.0,2.0,87,0.00,,---,0.00,0.00,VWS V14.01,2013-03-02 10:51:00,
2013-03-02 04:56:00,5.4,2.6,30.29,NNW,333,0.0,2.0,88,0.00,,---,0.00,0.00,VWS V14.01,2013-03-02 10:56:00,
2013-03-02 05:00:00,5.5,2.5,30.31,NNW,327,0.0,3.0,87,0.00,,---,0.00,0.00,VWS V14.01,2013-03-02 11:00:00,
2013-03-02 05:01:00,5.5,2.7,30.29,NNW,333,0.0,0.0,88,0.00,,---,0.00,0.00,VWS V14.01,2013-03-02 11:01:00,
2013-03-02 05:06:00,5.6,2.8,30.29,NNW,333,0.0,2.0,88,0.00,,---,0.00,0.00,VWS V14.01,2013-03-02 11:06:00,
2013-03-02 05:11:00,5.8,3.0,30.29,NNW,333,0.0,2.0,88,0.00,,---,0.00,0.00,VWS V14.01,2013-03-02 11:11:00,
2013-03-02 05:16:00,5.9,3.1,30.29,NNW,327,0.0,3.0,88,0.00,,---,0.00,0.00,VWS V14.01,2013-03-02 11:16:00,
2013-03-02 05:21:00,6.0,3.2,30.29,NNW,327,0.0,3.0,88,0.00,,---,0.00,0.00,VWS V14.01,2013-03-02 11:21:00,
2013-03-02 05:26:00,6.0,3.2,30.30,NNW,327,2.0,3.0,88,0.00,,---,0.00,0.00,VWS V14.01,2013-03-02 11:26:00,
2013-03-02 05:31:00,5.8,3.0,30.30,NNW,327,0.0,3.0,88,0.00,,---,0.00,0.00,VWS V14.01,2013-03-02 11:31:00,
2013-03-02 05:36:00,5.8,2.8,30.30,NNW,327,0.0,3.0,87,0.00,,---,0.00,0.00,VWS V14.01,2013-03-02 11:36:00,
2013-03-02 05:41:00,5.7,2.7,30.30,NNW,327,0.0,3.0,87,0.00,,---,0.00,0.00,VWS V14.01,2013-03-02 11:41:00,
2013-03-02 05:46:00,5.6,2.6,30.30,NNW,327,2.0,3.0,87,0.00,,---,0.00,0.00,VWS V14.01,2013-03-02 11:46:00,
2013-03-02 05:51:00,5.5,2.5,30.30,NNW,327,1.0,3.0,87,0.00,,---,0.00,0.00,VWS V14.01,2013-03-02 11:51:00,
2013-03-02 05:56:00,5.5,2.5,30.30,NNW,327,0.0,3.0,87,0.00,,---,0.00,0.00,VWS V14.01,2013-03-02 11:56:00,
2013-03-02 06:00:00,4.3,1.0,30.32,NW,325,0.0,2.0,86,0.00,,---,0.00,12.00,VWS V14.01,2013-03-02 12:00:00,
2013-03-02 06:01:00,5.5,2.5,30.31,NNW,327,0.0,2.0,87,0.00,,---,0.00,0.00,VWS V14.01,2013-03-02 12:01:00,
2013-03-02 06:06:00,5.6,2.6,30.31,NNW,327,0.0,2.0,87,0.00,,---,0.00,0.00,VWS V14.01,2013-03-02 12:06:00,
2013-03-02 06:11:00,5.7,2.7,30.31,NNW,327,1.0,2.0,87,0.00,,---,0.00,0.00,VWS V14.01,2013-03-02 12:11:00,
2013-03-02 06:16:00,5.7,2.7,30.31,NNW,327,1.0,2.0,87,0.00,,---,0.00,0.00,VWS V14.01,2013-03-02 12:16:00,
2013-03-02 06:21:00,5.7,2.7,30.31,NNW,327,0.0,2.0,87,0.00,,---,0.00,0.00,VWS V14.01,2013-03-02 12:21:00,
2013-03-02 06:26:00,5.6,2.6,30.31,NW,325,1.0,2.0,87,0.00,,---,0.00,0.00,VWS V14.01,2013-03-02 12:26:00,
2013-03-02 06:31:00,5.3,2.0,30.31,NW,325,1.0,2.0,86,0.00,,---,0.00,0.00,VWS V14.01,2013-03-02 12:31:00,
2013-03-02 06:36:00,5.0,4.3,30.31,NW,325,2.0,2.0,97,0.00,,---,0.00,0.00,VWS V14.01,2013-03-02 12:36:00,
2013-03-02 06:41:00,4.8,1.5,30.31,NW,325,1.0,2.0,86,0.00,,---,0.00,5.00,VWS V14.01,2013-03-02 12:41:00,
2013-03-02 06:46:00,4.5,1.2,30.31,NW,325,1.0,2.0,86,0.00,,---,0.00,7.00,VWS V14.01,2013-03-02 12:46:00,
2013-03-02 06:51:00,4.4,1.1,30.31,NW,325,1.0,2.0,86,0.00,,---,0.00,11.00,VWS V14.01,2013-03-02 12:51:00,
2013-03-02 06:56:00,4.3,1.0,30.31,NW,325,1.0,2.0,86,0.00,,---,0.00,12.00,VWS V14.01,2013-03-02 12:56:00,
2013-03-02 07:00:00,4.4,1.1,30.31,NW,325,1.0,3.0,86,0.00,,---,0.00,220.00,VWS V14.01,2013-03-02 13:00:00,
2013-03-02 07:01:00,4.3,1.0,30.31,NW,325,0.0,1.0,86,0.00,,---,0.00,12.00,VWS V14.01,2013-03-02 13:01:00,
2013-03-02 07:06:00,4.3,1.0,30.31,NW,325,0.0,1.0,86,0.00,,---,0.00,14.00,VWS V14.01,2013-03-02 13:06:00,
2013-03-02 07:11:00,4.4,1.1,30.31,NW,325,1.0,1.0,86,0.00,,---,0.00,18.00,VWS V14.01,2013-03-02 13:11:00,
2013-03-02 07:16:00,4.5,1.2,30.31,NW,325,1.0,1.0,86,0.00,,---,0.00,26.00,VWS V14.01,2013-03-02 13:16:00,
2013-03-02 07:21:00,4.5,1.2,30.31,NW,325,2.0,2.0,86,0.00,,---,0.00,23.00,VWS V14.01,2013-03-02 13:21:00,
2013-03-02 07:26:00,4.4,1.1,30.31,NW,325,2.0,2.0,86,0.00,,---,0.00,35.00,VWS V14.01,2013-03-02 13:26:00,
2013-03-02 07:31:00,4.2,0.9,30.31,NW,325,1.0,2.0,86,0.00,,---,0.00,62.00,VWS V14.01,2013-03-02 13:31:00,
2013-03-02 07:36:00,4.0,0.8,30.31,NW,325,2.0,2.0,86,0.00,,---,0.00,86.00,VWS V14.01,2013-03-02 13:36:00,
2013-03-02 07:41:00,4.0,0.8,30.31,NW,325,1.0,2.0,86,0.00,,---,0.00,84.00,VWS V14.01,2013-03-02 13:41:00,
2013-03-02 07:46:00,4.0,0.8,30.31,NW,325,1.0,2.0,86,0.00,,---,0.00,153.00,VWS V14.01,2013-03-02 13:46:00,
2013-03-02 07:51:00,4.0,0.8,30.31,NW,325,1.0,2.0,86,0.00,,---,0.00,188.00,VWS V14.01,2013-03-02 13:51:00,
2013-03-02 07:56:00,4.2,0.9,30.31,NW,325,1.0,2.0,86,0.00,,---,0.00,207.00,VWS V14.01,2013-03-02 13:56:00,
2013-03-02 08:00:00,14.1,10.7,30.31,NW,310,1.0,3.0,86,0.00,,---,0.00,200.00,VWS V14.01,2013-03-02 14:00:00,
2013-03-02 08:01:00,4.5,1.5,30.31,NW,325,2.0,2.0,87,0.00,,---,0.00,229.00,VWS V14.01,2013-03-02 14:01:00,
2013-03-02 08:06:00,5.4,2.6,30.31,NW,317,2.0,3.0,88,0.00,,---,0.00,230.00,VWS V14.01,2013-03-02 14:06:00,
2013-03-02 08:11:00,6.7,4.2,30.31,NW,317,1.0,3.0,89,0.00,,---,0.00,200.00,VWS V14.01,2013-03-02 14:11:00,
2013-03-02 08:16:00,7.9,5.3,30.31,NW,317,2.0,3.0,89,0.00,,---,0.00,200.00,VWS V14.01,2013-03-02 14:16:00,
2013-03-02 08:21:00,9.0,6.7,30.31,NW,317,1.0,3.0,90,0.00,,---,0.00,234.00,VWS V14.01,2013-03-02 14:21:00,
2013-03-02 08:26:00,9.7,7.4,30.31,NW,317,1.0,3.0,90,0.00,,---,0.00,287.00,VWS V14.01,2013-03-02 14:26:00,
2013-03-02 08:31:00,10.4,8.1,30.31,NW,317,1.0,3.0,90,0.00,,---,0.00,329.00,VWS V14.01,2013-03-02 14:31:00,
2013-03-02 08:36:00,11.3,8.7,30.31,NW,317,1.0,3.0,89,0.00,,---,0.00,274.00,VWS V14.01,2013-03-02 14:36:00,
2013-03-02 08:41:00,12.0,9.4,30.31,NW,317,1.0,3.0,89,0.00,,---,0.00,239.00,VWS V14.01,2013-03-02 14:41:00,
2013-03-02 08:46:00,12.8,9.9,30.31,NW,310,2.0,3.0,88,0.00,,---,0.00,181.00,VWS V14.01,2013-03-02 14:46:00,
2013-03-02 08:51:00,13.4,10.3,30.31,NW,310,0.0,3.0,87,0.00,,---,0.00,167.00,VWS V14.01,2013-03-02 14:51:00,
2013-03-02 08:56:00,13.9,10.5,30.31,NW,310,0.0,3.0,86,0.00,,---,0.00,258.00,VWS V14.01,2013-03-02 14:56:00,
2013-03-02 09:00:00,21.1,12.5,30.30,NNE,26,3.0,7.0,69,0.00,,---,0.00,575.00,VWS V14.01,2013-03-02 15:00:00,
2013-03-02 09:01:00,14.3,10.9,30.31,NW,326,2.0,3.0,86,0.00,,---,0.00,246.00,VWS V14.01,2013-03-02 15:01:00,
2013-03-02 09:06:00,15.0,11.3,30.31,North,5,4.0,4.0,85,0.00,,---,0.00,385.00,VWS V14.01,2013-03-02 15:06:00,
2013-03-02 09:11:00,15.9,11.7,30.31,NNE,26,2.0,5.0,83,0.00,,---,0.00,309.00,VWS V14.01,2013-03-02 15:11:00,
2013-03-02 09:16:00,16.6,11.8,30.31,North,360,4.0,6.0,81,0.00,,---,0.00,374.00,VWS V14.01,2013-03-02 15:16:00,
2013-03-02 09:21:00,17.0,11.9,30.31,NNW,338,5.0,7.0,80,0.00,,---,0.00,390.00,VWS V14.01,2013-03-02 15:21:00,
2013-03-02 09:26:00,17.7,11.7,30.31,North,9,2.0,7.0,77,0.00,,---,0.00,410.00,VWS V14.01,2013-03-02 15:26:00,
2013-03-02 09:31:00,18.2,11.9,30.31,NNW,330,3.0,7.0,76,0.00,,---,0.00,362.00,VWS V14.01,2013-03-02 15:31:00,
2013-03-02 09:36:00,18.7,12.1,30.31,NNW,348,2.0,7.0,75,0.00,,---,0.00,522.00,VWS V14.01,2013-03-02 15:36:00,
2013-03-02 09:41:00,19.3,12.1,30.31,North,355,1.0,7.0,73,0.00,,---,0.00,513.00,VWS V14.01,2013-03-02 15:41:00,
2013-03-02 09:46:00,19.8,12.6,30.31,NNW,339,5.0,7.0,73,0.00,,---,0.00,515.00,VWS V14.01,2013-03-02 15:46:00,
2013-03-02 09:51:00,20.3,12.4,30.30,North,360,3.0,7.0,71,0.00,,---,0.00,557.00,VWS V14.01,2013-03-02 15:51:00,
2013-03-02 09:56:00,20.7,12.5,30.30,North,9,2.0,7.0,70,0.00,,---,0.00,568.00,VWS V14.01,2013-03-02 15:56:00,
2013-03-02 10:00:00,25.5,13.6,30.29,North,360,2.0,9.0,60,0.00,,---,0.00,687.00,VWS V14.01,2013-03-02 16:00:00,
2013-03-02 10:01:00,21.2,12.6,30.30,North,349,2.0,5.0,69,0.00,,---,0.00,580.00,VWS V14.01,2013-03-02 16:01:00,
2013-03-02 10:06:00,21.7,12.8,30.30,North,355,3.0,5.0,68,0.00,,---,0.00,591.00,VWS V14.01,2013-03-02 16:06:00,
2013-03-02 10:11:00,22.0,12.7,30.30,NNW,336,4.0,5.0,67,0.00,,---,0.00,603.00,VWS V14.01,2013-03-02 16:11:00,
2013-03-02 10:16:00,22.5,13.2,30.30,North,9,2.0,5.0,67,0.00,,---,0.00,612.00,VWS V14.01,2013-03-02 16:16:00,
2013-03-02 10:21:00,22.7,12.7,30.30,NW,308,3.0,7.0,65,0.00,,---,0.00,621.00,VWS V14.01,2013-03-02 16:21:00,
2013-03-02 10:26:00,23.1,13.1,30.30,NNW,337,2.0,7.0,65,0.00,,---,0.00,631.00,VWS V14.01,2013-03-02 16:26:00,
2013-03-02 10:31:00,23.7,13.3,30.30,NNE,30,1.0,7.0,64,0.00,,---,0.00,642.00,VWS V14.01,2013-03-02 16:31:00,
2013-03-02 10:36:00,24.0,13.2,30.30,NNW,345,4.0,7.0,63,0.00,,---,0.00,650.00,VWS V14.01,2013-03-02 16:36:00,
2013-03-02 10:41:00,24.3,13.5,30.30,North,5,1.0,7.0,63,0.00,,---,0.00,659.00,VWS V14.01,2013-03-02 16:41:00,
2013-03-02 10:46:00,24.6,13.8,30.30,NNW,342,1.0,7.0,63,0.00,,---,0.00,670.00,VWS V14.01,2013-03-02 16:46:00,
2013-03-02 10:51:00,24.7,13.6,30.29,North,5,2.0,7.0,62,0.00,,---,0.00,675.00,VWS V14.01,2013-03-02 16:51:00,
2013-03-02 10:56:00,25.1,13.9,30.29,NNE,20,3.0,7.0,62,0.00,,---,0.00,684.00,VWS V14.01,2013-03-02 16:56:00,
2013-03-02 11:00:00,27.4,13.4,30.27,West,269,5.0,10.0,55,0.00,,---,0.00,737.00,VWS V14.01,2013-03-02 17:00:00,
2013-03-02 11:01:00,25.7,14.1,30.29,NNE,20,4.0,5.0,61,0.00,,---,0.00,689.00,VWS V14.01,2013-03-02 17:01:00,
2013-03-02 11:06:00,25.7,13.8,30.29,NNE,19,5.0,6.0,60,0.00,,---,0.00,698.00,VWS V14.01,2013-03-02 17:06:00,
2013-03-02 11:11:00,25.8,13.9,30.29,NNE,33,3.0,6.0,60,0.00,,---,0.00,703.00,VWS V14.01,2013-03-02 17:11:00,
2013-03-02 11:16:00,26.0,14.4,30.29,NNE,26,3.0,6.0,61,0.00,,---,0.00,708.00,VWS V14.01,2013-03-02 17:16:00,
2013-03-02 11:21:00,26.6,14.6,30.28,NE,35,1.0,6.0,60,0.00,,---,0.00,714.00,VWS V14.01,2013-03-02 17:21:00,
2013-03-02 11:26:00,26.5,14.1,30.28,NNE,28,5.0,6.0,59,0.00,,---,0.00,715.00,VWS V14.01,2013-03-02 17:26:00,
2013-03-02 11:31:00,26.8,14.4,30.28,ENE,60,3.0,6.0,59,0.00,,---,0.00,721.00,VWS V14.01,2013-03-02 17:31:00,
2013-03-02 11:36:00,26.7,14.3,30.28,North,360,3.0,6.0,59,0.00,,---,0.00,726.00,VWS V14.01,2013-03-02 17:36:00,
2013-03-02 11:41:00,26.9,14.1,30.28,North,5,3.0,7.0,58,0.00,,---,0.00,726.00,VWS V14.01,2013-03-02 17:41:00,
2013-03-02 11:46:00,27.2,14.0,30.28,NNE,22,3.0,7.0,57,0.00,,---,0.00,729.00,VWS V14.01,2013-03-02 17:46:00,
2013-03-02 11:51:00,27.1,14.3,30.28,NNE,31,4.0,9.0,58,0.00,,---,0.00,735.00,VWS V14.01,2013-03-02 17:51:00,
2013-03-02 11:56:00,27.4,13.8,30.27,SW,235,7.0,10.0,56,0.00,,---,0.00,735.00,VWS V14.01,2013-03-02 17:56:00,
2013-03-02 12:00:00,31.2,14.3,30.25,NW,323,3.0,10.0,49,0.00,,---,0.00,719.00,VWS V14.01,2013-03-02 18:00:00,
2013-03-02 12:01:00,27.5,13.9,30.27,NW,317,1.0,5.0,56,0.00,,---,0.00,737.00,VWS V14.01,2013-03-02 18:01:00,
2013-03-02 12:06:00,27.8,13.8,30.27,ENE,57,3.0,7.0,55,0.00,,---,0.00,738.00,VWS V14.01,2013-03-02 18:06:00,
2013-03-02 12:11:00,27.6,13.6,30.27,NNE,24,4.0,7.0,55,0.00,,---,0.00,742.00,VWS V14.01,2013-03-02 18:11:00,
2013-03-02 12:16:00,27.8,12.9,30.27,NNW,328,1.0,10.0,53,0.00,,---,0.00,742.00,VWS V14.01,2013-03-02 18:16:00,
2013-03-02 12:21:00,28.0,13.1,30.26,NE,44,4.0,10.0,53,0.00,,---,0.00,740.00,VWS V14.01,2013-03-02 18:21:00,
2013-03-02 12:26:00,27.9,13.0,30.26,NNE,17,3.0,10.0,53,0.00,,---,0.00,740.00,VWS V14.01,2013-03-02 18:26:00,
2013-03-02 12:31:00,27.9,13.4,30.26,NNW,337,6.0,10.0,54,0.00,,---,0.00,740.00,VWS V14.01,2013-03-02 18:31:00,
2013-03-02 12:36:00,28.5,14.0,30.26,NNW,333,2.0,10.0,54,0.00,,---,0.00,733.00,VWS V14.01,2013-03-02 18:36:00,
2013-03-02 12:41:00,29.3,14.3,30.26,NNW,343,4.0,10.0,53,0.00,,---,0.00,733.00,VWS V14.01,2013-03-02 18:41:00,
2013-03-02 12:46:00,29.3,13.4,30.26,North,360,2.0,10.0,51,0.00,,---,0.00,731.00,VWS V14.01,2013-03-02 18:46:00,
2013-03-02 12:51:00,30.0,15.0,30.26,NNW,340,2.0,10.0,53,0.00,,---,0.00,726.00,VWS V14.01,2013-03-02 18:51:00,
2013-03-02 12:56:00,31.5,15.5,30.25,North,5,2.0,10.0,51,0.00,,---,0.00,722.00,VWS V14.01,2013-03-02 18:56:00,
2013-03-02 13:00:00,32.4,12.9,30.24,West,277,2.0,10.0,44,0.00,,---,0.00,643.00,VWS V14.01,2013-03-02 19:00:00,
2013-03-02 13:01:00,31.1,14.2,30.25,North,355,0.0,5.0,49,0.00,,---,0.00,721.00,VWS V14.01,2013-03-02 19:01:00,
2013-03-02 13:06:00,31.7,13.8,30.25,NW,306,2.0,7.0,47,0.00,,---,0.00,717.00,VWS V14.01,2013-03-02 19:06:00,
2013-03-02 13:11:00,31.3,13.4,30.25,NNE,22,4.0,7.0,47,0.00,,---,0.00,710.00,VWS V14.01,2013-03-02 19:11:00,
2013-03-02 13:16:00,30.7,13.4,30.25,NNW,340,1.0,7.0,48,0.00,,---,0.00,703.00,VWS V14.01,2013-03-02 19:16:00,
2013-03-02 13:21:00,30.5,13.6,30.25,WSW,237,3.0,7.0,49,0.00,,---,0.00,700.00,VWS V14.01,2013-03-02 19:21:00,
2013-03-02 13:26:00,30.5,13.2,30.24,NNW,344,3.0,7.0,48,0.00,,---,0.00,693.00,VWS V14.01,2013-03-02 19:26:00,
2013-03-02 13:31:00,30.1,12.3,30.24,ENE,57,8.0,10.0,47,0.00,,---,0.00,686.00,VWS V14.01,2013-03-02 19:31:00,
2013-03-02 13:36:00,29.8,12.0,30.24,North,360,2.0,10.0,47,0.00,,---,0.00,677.00,VWS V14.01,2013-03-02 19:36:00,
2013-03-02 13:41:00,30.6,13.7,30.24,WSW,254,3.0,10.0,49,0.00,,---,0.00,671.00,VWS V14.01,2013-03-02 19:41:00,
2013-03-02 13:46:00,31.1,14.2,30.24,NE,40,2.0,10.0,49,0.00,,---,0.00,666.00,VWS V14.01,2013-03-02 19:46:00,
2013-03-02 13:51:00,31.5,13.1,30.24,NNE,19,4.0,10.0,46,0.00,,---,0.00,656.00,VWS V14.01,2013-03-02 19:51:00,
2013-03-02 13:56:00,31.8,12.9,30.24,North,355,0.0,10.0,45,0.00,,---,0.00,650.00,VWS V14.01,2013-03-02 19:56:00,
2013-03-02 14:00:00,32.8,8.8,30.22,NNW,339,4.0,8.0,36,0.00,,---,0.00,512.00,VWS V14.01,2013-03-02 20:00:00,
2013-03-02 14:01:00,32.4,12.4,30.24,West,277,1.0,7.0,43,0.00,,---,0.00,642.00,VWS V14.01,2013-03-02 20:01:00,
2013-03-02 14:06:00,32.7,13.2,30.24,WSW,247,3.0,7.0,44,0.00,,---,0.00,631.00,VWS V14.01,2013-03-02 20:06:00,
2013-03-02 14:11:00,32.9,13.9,30.23,North,355,0.0,7.0,45,0.00,,---,0.00,624.00,VWS V14.01,2013-03-02 20:11:00,
2013-03-02 14:16:00,33.1,13.6,30.23,NNW,338,0.0,7.0,44,0.00,,---,0.00,613.00,VWS V14.01,2013-03-02 20:16:00,
2013-03-02 14:21:00,33.5,14.4,30.23,West,277,3.0,7.0,45,0.00,,---,0.00,603.00,VWS V14.01,2013-03-02 20:21:00,
2013-03-02 14:26:00,33.5,14.4,30.23,NNE,31,3.0,7.0,45,0.00,,---,0.00,592.00,VWS V14.01,2013-03-02 20:26:00,
2013-03-02 14:31:00,33.5,12.9,30.23,North,360,2.0,7.0,42,0.00,,---,0.00,584.00,VWS V14.01,2013-03-02 20:31:00,
2013-03-02 14:36:00,34.4,14.2,30.22,North,355,0.0,7.0,43,0.00,,---,0.00,570.00,VWS V14.01,2013-03-02 20:36:00,
2013-03-02 14:41:00,35.0,12.6,30.22,NNW,344,1.0,7.0,39,0.00,,---,0.00,561.00,VWS V14.01,2013-03-02 20:41:00,
2013-03-02 14:46:00,34.4,10.8,30.22,NE,52,5.0,7.0,37,0.00,,---,0.00,548.00,VWS V14.01,2013-03-02 20:46:00,
2013-03-02 14:51:00,33.2,9.8,30.22,NNE,23,3.0,7.0,37,0.00,,---,0.00,533.00,VWS V14.01,2013-03-02 20:51:00,
2013-03-02 14:56:00,33.0,10.2,30.22,North,11,4.0,7.0,38,0.00,,---,0.00,520.00,VWS V14.01,2013-03-02 20:56:00,
2013-03-02 15:00:00,31.8,9.7,30.22,NNW,342,5.0,9.0,39,0.00,,---,0.00,327.00,VWS V14.01,2013-03-02 21:00:00,
2013-03-02 15:01:00,32.6,8.6,30.22,North,5,3.0,5.0,36,0.00,,---,0.00,504.00,VWS V14.01,2013-03-02 21:01:00,
2013-03-02 15:06:00,32.4,9.6,30.22,North,5,3.0,6.0,38,0.00,,---,0.00,492.00,VWS V14.01,2013-03-02 21:06:00,
2013-03-02 15:11:00,32.3,9.0,30.22,NW,317,5.0,8.0,37,0.00,,---,0.00,480.00,VWS V14.01,2013-03-02 21:11:00,
2013-03-02 15:16:00,32.3,10.1,30.22,WNW,296,2.0,9.0,39,0.00,,---,0.00,466.00,VWS V14.01,2013-03-02 21:16:00,
2013-03-02 15:21:00,32.6,9.8,30.22,West,269,2.0,9.0,38,0.00,,---,0.00,452.00,VWS V14.01,2013-03-02 21:21:00,
2013-03-02 15:26:00,32.6,9.8,30.22,NNE,19,4.0,9.0,38,0.00,,---,0.00,436.00,VWS V14.01,2013-03-02 21:26:00,
2013-03-02 15:31:00,32.2,9.5,30.22,NNW,336,3.0,9.0,38,0.00,,---,0.00,420.00,VWS V14.01,2013-03-02 21:31:00,
2013-03-02 15:36:00,32.0,9.3,30.22,NNW,338,4.0,9.0,38,0.00,,---,0.00,403.00,VWS V14.01,2013-03-02 21:36:00,
2013-03-02 15:41:00,31.8,9.1,30.22,NNE,13,3.0,9.0,38,0.00,,---,0.00,385.00,VWS V14.01,2013-03-02 21:41:00,
2013-03-02 15:46:00,31.8,9.1,30.22,NNE,31,3.0,9.0,38,0.00,,---,0.00,371.00,VWS V14.01,2013-03-02 21:46:00,
2013-03-02 15:51:00,31.6,9.5,30.21,North,360,2.0,9.0,39,0.00,,---,0.00,352.00,VWS V14.01,2013-03-02 21:51:00,
2013-03-02 15:56:00,31.7,9.0,30.22,NNE,17,1.0,9.0,38,0.00,,---,0.00,338.00,VWS V14.01,2013-03-02 21:56:00,
2013-03-02 16:00:00,30.4,7.8,30.22,NNW,339,0.0,8.0,38,0.00,,---,0.00,44.00,VWS V14.01,2013-03-02 22:00:00,
2013-03-02 16:01:00,31.8,9.7,30.22,NNW,340,4.0,5.0,39,0.00,,---,0.00,322.00,VWS V14.01,2013-03-02 22:01:00,
2013-03-02 16:06:00,31.9,9.8,30.22,NNW,345,4.0,6.0,39,0.00,,---,0.00,304.00,VWS V14.01,2013-03-02 22:06:00,
2013-03-02 16:11:00,31.8,9.7,30.22,NNW,339,5.0,6.0,39,0.00,,---,0.00,285.00,VWS V14.01,2013-03-02 22:11:00,
2013-03-02 16:16:00,31.7,9.6,30.22,NW,323,1.0,6.0,39,0.00,,---,0.00,265.00,VWS V14.01,2013-03-02 22:16:00,
2013-03-02 16:20:00,31.6,10.1,30.22,NNW,340,2.0,6.0,40,0.00,,---,0.00,243.00,VWS V14.01,2013-03-02 22:20:00,
2013-03-02 16:26:00,31.9,10.3,30.22,NNW,342,2.0,6.0,40,0.00,,---,0.00,225.00,VWS V14.01,2013-03-02 22:26:00,
2013-03-02 16:31:00,32.0,9.3,30.22,NNE,24,3.0,6.0,38,0.00,,---,0.00,204.00,VWS V14.01,2013-03-02 22:31:00,
2013-03-02 16:36:00,31.5,8.8,30.22,NNW,342,8.0,8.0,38,0.00,,---,0.00,160.00,VWS V14.01,2013-03-02 22:36:00,
2013-03-02 16:41:00,31.0,8.4,30.22,North,355,3.0,8.0,38,0.00,,---,0.00,125.00,VWS V14.01,2013-03-02 22:41:00,
2013-03-02 16:46:00,30.8,8.8,30.22,NNW,338,3.0,8.0,39,0.00,,---,0.00,70.00,VWS V14.01,2013-03-02 22:46:00,
2013-03-02 16:51:00,30.8,9.3,30.22,North,355,3.0,8.0,40,0.00,,---,0.00,74.00,VWS V14.01,2013-03-02 22:51:00,
2013-03-02 16:56:00,30.6,7.4,30.22,NNW,348,2.0,8.0,37,0.00,,---,0.00,51.00,VWS V14.01,2013-03-02 22:56:00,
2013-03-02 17:00:00,27.5,6.4,30.23,NNE,19,1.0,5.0,40,0.00,,---,0.00,0.00,VWS V14.01,2013-03-02 23:00:00,
2013-03-02 17:01:00,30.4,8.4,30.22,NNW,339,1.0,2.0,39,0.00,,---,0.00,40.00,VWS V14.01,2013-03-02 23:01:00,
2013-03-02 17:06:00,30.2,8.2,30.22,NNW,339,0.0,2.0,39,0.00,,---,0.00,26.00,VWS V14.01,2013-03-02 23:06:00,
2013-03-02 17:11:00,30.0,8.1,30.22,NNW,338,0.0,4.0,39,0.00,,---,0.00,28.00,VWS V14.01,2013-03-02 23:11:00,
2013-03-02 17:15:00,29.8,7.9,30.23,NNW,338,0.0,4.0,39,0.00,,---,0.00,23.00,VWS V14.01,2013-03-02 23:15:00,
2013-03-02 17:21:00,29.6,7.7,30.23,NNW,339,0.0,4.0,39,0.00,,---,0.00,19.00,VWS V14.01,2013-03-02 23:21:00,
2013-03-02 17:26:00,29.3,8.0,30.23,NNW,339,2.0,4.0,40,0.00,,---,0.00,18.00,VWS V14.01,2013-03-02 23:26:00,
2013-03-02 17:31:00,29.0,6.6,30.23,NNW,335,1.0,5.0,38,0.00,,---,0.00,16.00,VWS V14.01,2013-03-02 23:31:00,
2013-03-02 17:35:00,28.7,6.9,30.23,NNW,336,1.0,5.0,39,0.00,,---,0.00,12.00,VWS V14.01,2013-03-02 23:35:00,
2013-03-02 17:41:00,28.4,6.6,30.23,North,350,1.0,5.0,39,0.00,,---,0.00,11.00,VWS V14.01,2013-03-02 23:41:00,
2013-03-02 17:46:00,28.2,7.0,30.23,North,349,2.0,5.0,40,0.00,,---,0.00,7.00,VWS V14.01,2013-03-02 23:46:00,
2013-03-02 17:50:00,27.9,6.2,30.23,NNW,337,1.0,5.0,39,0.00,,---,0.00,5.00,VWS V14.01,2013-03-02 23:50:00,
2013-03-02 17:56:00,27.7,6.5,30.23,NNE,19,1.0,5.0,40,0.00,,---,0.00,0.00,VWS V14.01,2013-03-02 23:56:00,
2013-03-02 18:00:00,27.5,6.4,30.23,NNE,19,0.0,1.0,40,0.00,,---,0.00,0.00,VWS V14.01,2013-03-03 00:00:00,
2013-03-02 18:05:00,27.2,6.6,30.23,NNE,19,0.0,1.0,41,0.00,,---,0.00,0.00,VWS V14.01,2013-03-03 00:05:00,
2013-03-02 18:10:00,26.9,6.4,30.23,NNE,19,0.0,2.0,41,0.00,,---,0.00,0.00,VWS V14.01,2013-03-03 00:10:00,
2013-03-02 18:15:00,26.7,6.7,30.23,NNE,19,0.0,2.0,42,0.00,,---,0.00,0.00,VWS V14.01,2013-03-03 00:15:00,
2013-03-02 18:20:00,26.4,6.9,30.23,NNE,19,1.0,2.0,43,0.00,,---,0.00,0.00,VWS V14.01,2013-03-03 00:20:00,
2013-03-02 18:25:00,25.8,5.9,30.23,NW,305,2.0,3.0,42,0.00,,---,0.00,0.00,VWS V14.01,2013-03-03 00:25:00,
2013-03-02 18:30:00,23.8,5.1,30.23,NW,305,1.0,3.0,44,0.00,,---,0.00,0.00,VWS V14.01,2013-03-03 00:30:00,
2013-03-02 18:35:00,22.4,4.8,30.23,NW,304,2.0,3.0,46,0.00,,---,0.00,0.00,VWS V14.01,2013-03-03 00:35:00,
2013-03-02 18:40:00,21.2,5.0,30.23,NW,304,2.0,3.0,49,0.00,,---,0.00,0.00,VWS V14.01,2013-03-03 00:40:00,
2013-03-02 18:45:00,20.3,5.1,30.23,NW,305,2.0,3.0,51,0.00,,---,0.00,0.00,VWS V14.01,2013-03-03 00:45:00,
2013-03-02 18:50:00,19.3,5.0,30.23,NW,305,1.0,3.0,53,0.00,,---,0.00,0.00,VWS V14.01,2013-03-03 00:50:00,
2013-03-02 18:55:00,18.9,4.6,30.23,NW,305,0.0,3.0,53,0.00,,---,0.00,0.00,VWS V14.01,2013-03-03 00:55:00,
2013-03-02 19:00:00,18.4,4.6,30.23,NW,305,1.0,2.0,54,0.00,,---,0.00,0.00,VWS V14.01,2013-03-03 01:00:00,
2013-03-02 19:05:00,17.9,4.5,30.24,NW,304,1.0,2.0,55,0.00,,---,0.00,0.00,VWS V14.01,2013-03-03 01:05:00,
2013-03-02 19:10:00,17.0,4.4,30.23,NW,304,2.0,3.0,57,0.00,,---,0.00,0.00,VWS V14.01,2013-03-03 01:10:00,
2013-03-02 19:15:00,15.8,3.7,30.23,NW,305,1.0,3.0,58,0.00,,---,0.00,0.00,VWS V14.01,2013-03-03 01:15:00,
2013-03-02 19:20:00,14.7,3.3,30.24,NW,304,1.0,3.0,60,0.00,,---,0.00,0.00,VWS V14.01,2013-03-03 01:20:00,
2013-03-02 19:25:00,14.2,3.6,30.24,NW,304,1.0,3.0,62,0.00,,---,0.00,0.00,VWS V14.01,2013-03-03 01:25:00,
2013-03-02 19:30:00,13.6,3.4,30.23,NW,304,2.0,3.0,63,0.00,,---,0.00,0.00,VWS V14.01,2013-03-03 01:30:00,
2013-03-02 19:35:00,13.0,2.8,30.23,NW,305,1.0,3.0,63,0.00,,---,0.00,0.00,VWS V14.01,2013-03-03 01:35:00,
2013-03-02 19:40:00,12.3,2.8,30.23,NW,304,1.0,3.0,65,0.00,,---,0.00,0.00,VWS V14.01,2013-03-03 01:40:00,
2013-03-02 19:45:00,11.8,2.7,30.23,NW,305,1.0,3.0,66,0.00,,---,0.00,0.00,VWS V14.01,2013-03-03 01:45:00,
2013-03-02 19:50:00,11.7,3.2,30.23,NW,304,1.0,3.0,68,0.00,,---,0.00,0.00,VWS V14.01,2013-03-03 01:50:00,
2013-03-02 19:55:00,11.5,3.0,30.23,NW,304,2.0,3.0,68,0.00,,---,0.00,0.00,VWS V14.01,2013-03-03 01:55:00,
2013-03-02 20:00:00,11.3,2.8,30.23,NW,304,1.0,1.0,68,0.00,,---,0.00,0.00,VWS V14.01,2013-03-03 02:00:00,
2013-03-02 20:05:00,11.1,2.6,30.23,NW,304,1.0,2.0,68,0.00,,---,0.00,0.00,VWS V14.01,2013-03-03 02:05:00,
2013-03-02 20:10:00,10.8,2.3,30.23,NW,305,2.0,3.0,68,0.00,,---,0.00,0.00,VWS V14.01,2013-03-03 02:10:00,
2013-03-02 20:15:00,10.4,2.3,30.23,NW,305,2.0,3.0,69,0.00,,---,0.00,0.00,VWS V14.01,2013-03-03 02:15:00,
2013-03-02 20:20:00,10.2,2.4,30.23,NW,304,1.0,3.0,70,0.00,,---,0.00,0.00,VWS V14.01,2013-03-03 02:20:00,
2013-03-02 20:25:00,10.2,2.4,30.23,NW,304,0.0,3.0,70,0.00,,---,0.00,0.00,VWS V14.01,2013-03-03 02:25:00,
2013-03-02 20:30:00,10.2,2.7,30.23,NW,304,1.0,3.0,71,0.00,,---,0.00,0.00,VWS V14.01,2013-03-03 02:30:00,
2013-03-02 20:35:00,10.2,3.0,30.23,NW,304,2.0,3.0,72,0.00,,---,0.00,0.00,VWS V14.01,2013-03-03 02:35:00,
2013-03-02 20:40:00,10.3,3.1,30.24,NW,305,1.0,3.0,72,0.00,,---,0.00,0.00,VWS V14.01,2013-03-03 02:40:00,
2013-03-02 20:45:00,10.4,3.2,30.23,NW,305,1.0,3.0,72,0.00,,---,0.00,0.00,VWS V14.01,2013-03-03 02:45:00,
2013-03-02 20:50:00,10.3,3.1,30.24,NW,304,2.0,3.0,72,0.00,,---,0.00,0.00,VWS V14.01,2013-03-03 02:50:00,
2013-03-02 20:55:00,10.2,2.7,30.24,NW,304,2.0,3.0,71,0.00,,---,0.00,0.00,VWS V14.01,2013-03-03 02:55:00,
2013-03-02 21:00:00,9.9,2.4,30.24,NW,304,1.0,1.0,71,0.00,,---,0.00,0.00,VWS V14.01,2013-03-03 03:00:00,
2013-03-02 21:05:00,9.8,2.6,30.24,NW,305,1.0,1.0,72,0.00,,---,0.00,0.00,VWS V14.01,2013-03-03 03:05:00,
2013-03-02 21:10:00,9.3,1.8,30.24,NW,304,1.0,3.0,71,0.00,,---,0.00,0.00,VWS V14.01,2013-03-03 03:10:00,
2013-03-02 21:15:00,8.9,1.7,30.23,NW,305,2.0,3.0,72,0.00,,---,0.00,0.00,VWS V14.01,2013-03-03 03:15:00,
2013-03-02 21:20:00,8.7,1.8,30.23,NW,305,2.0,3.0,73,0.00,,---,0.00,0.00,VWS V14.01,2013-03-03 03:20:00,
2013-03-02 21:25:00,8.7,2.1,30.23,NW,304,1.0,3.0,74,0.00,,---,0.00,0.00,VWS V14.01,2013-03-03 03:25:00,
2013-03-02 21:30:00,8.7,2.1,30.23,NW,304,1.0,3.0,74,0.00,,---,0.00,0.00,VWS V14.01,2013-03-03 03:30:00,
2013-03-02 21:35:00,8.7,2.1,30.23,NW,305,0.0,3.0,74,0.00,,---,0.00,0.00,VWS V14.01,2013-03-03 03:35:00,
2013-03-02 21:40:00,8.6,2.0,30.23,NW,304,2.0,3.0,74,0.00,,---,0.00,0.00,VWS V14.01,2013-03-03 03:40:00,
2013-03-02 21:45:00,8.6,2.0,30.22,NW,304,2.0,3.0,74,0.00,,---,0.00,0.00,VWS V14.01,2013-03-03 03:45:00,
2013-03-02 21:50:00,8.6,2.3,30.22,NW,304,1.0,3.0,75,0.00,,---,0.00,0.00,VWS V14.01,2013-03-03 03:50:00,
2013-03-02 21:55:00,8.6,2.3,30.22,NW,304,1.0,3.0,75,0.00,,---,0.00,0.00,VWS V14.01,2013-03-03 03:55:00,
2013-03-02 22:00:00,8.7,2.7,30.22,NW,305,1.0,1.0,76,0.00,,---,0.00,0.00,VWS V14.01,2013-03-03 04:00:00,
2013-03-02 22:05:00,8.9,3.2,30.22,NW,304,1.0,2.0,77,0.00,,---,0.00,0.00,VWS V14.01,2013-03-03 04:05:00,
2013-03-02 22:10:00,9.4,3.9,30.22,NW,305,0.0,2.0,78,0.00,,---,0.00,0.00,VWS V14.01,2013-03-03 04:10:00,
2013-03-02 22:15:00,9.7,4.2,30.22,NW,305,0.0,2.0,78,0.00,,---,0.00,0.00,VWS V14.01,2013-03-03 04:15:00,
2013-03-02 22:20:00,9.9,4.7,30.22,NW,304,0.0,2.0,79,0.00,,---,0.00,0.00,VWS V14.01,2013-03-03 04:20:00,
2013-03-02 22:25:00,10.1,4.9,30.22,NW,304,0.0,2.0,79,0.00,,---,0.00,0.00,VWS V14.01,2013-03-03 04:25:00,
2013-03-02 22:30:00,10.4,5.2,30.22,NW,305,0.0,2.0,79,0.00,,---,0.00,0.00,VWS V14.01,2013-03-03 04:30:00,
2013-03-02 22:35:00,10.5,5.3,30.22,NW,305,0.0,2.0,79,0.00,,---,0.00,0.00,VWS V14.01,2013-03-03 04:35:00,
2013-03-02 22:40:00,10.8,5.6,30.21,NW,305,0.0,2.0,79,0.00,,---,0.00,0.00,VWS V14.01,2013-03-03 04:40:00,
2013-03-02 22:45:00,11.0,5.8,30.21,NW,305,0.0,2.0,79,0.00,,---,0.00,0.00,VWS V14.01,2013-03-03 04:45:00,
2013-03-02 22:50:00,11.1,5.9,30.21,NW,305,0.0,2.0,79,0.00,,---,0.00,0.00,VWS V14.01,2013-03-03 04:50:00,
2013-03-02 22:55:00,11.2,5.7,30.21,NW,305,0.0,2.0,78,0.00,,---,0.00,0.00,VWS V14.01,2013-03-03 04:55:00,
2013-03-02 23:00:00,11.3,5.8,30.21,NW,304,0.0,0.0,78,0.00,,---,0.00,0.00,VWS V14.01,2013-03-03 05:00:00,
2013-03-02 23:05:00,11.4,5.9,30.20,NW,305,0.0,0.0,78,0.00,,---,0.00,0.00,VWS V14.01,2013-03-03 05:05:00,
2013-03-02 23:10:00,11.5,6.0,30.20,NW,305,0.0,1.0,78,0.00,,---,0.00,0.00,VWS V14.01,2013-03-03 05:10:00,
2013-03-02 23:15:00,11.6,6.1,30.21,NW,305,0.0,1.0,78,0.00,,---,0.00,0.00,VWS V14.01,2013-03-03 05:15:00,
2013-03-02 23:20:00,11.5,5.7,30.20,NW,304,0.0,1.0,77,0.00,,---,0.00,0.00,VWS V14.01,2013-03-03 05:20:00,
2013-03-02 23:25:00,11.5,5.7,30.20,NW,305,0.0,1.0,77,0.00,,---,0.00,0.00,VWS V14.01,2013-03-03 05:25:00,
2013-03-02 23:30:00,11.4,5.3,30.20,NW,304,0.0,1.0,76,0.00,,---,0.00,0.00,VWS V14.01,2013-03-03 05:30:00,
2013-03-02 23:35:00,11.3,5.2,30.20,NW,304,0.0,1.0,76,0.00,,---,0.00,0.00,VWS V14.01,2013-03-03 05:35:00,
2013-03-02 23:40:00,11.3,5.5,30.20,NW,305,1.0,1.0,77,0.00,,---,0.00,0.00,VWS V14.01,2013-03-03 05:40:00,
2013-03-02 23:45:00,11.2,5.4,30.20,NW,304,1.0,2.0,77,0.00,,---,0.00,0.00,VWS V14.01,2013-03-03 05:45:00,
2013-03-02 23:50:00,11.1,5.0,30.21,NW,305,1.0,2.0,76,0.00,,---,0.00,0.00,VWS V14.01,2013-03-03 05:50:00,
2013-03-02 23:55:00,10.9,4.8,30.20,NW,304,0.0,2.0,76,0.00,,---,0.00,0.00,VWS V14.01,2013-03-03 05:55:00,